When you browse on this site, cookies collect data to enhance your experience and personalize the content and advertising you see.
Visit our Privacy Policy to learn more. By continuing to use the site, you agree to this use of cookies and data.
  • In Hungary
  • List of Countries
  • For 7 days
  • Water Temperature
  • Weather Map
  • News
  • Weather Widgets
  • user-avatar
    Login

    Hourly Weather Keret

    Today, 21 August, Wednesday

    Time Temperature Precipitation Wind Pressure Humidity
    00:00 +13°C° 0 mm 2 mps 754 mmHg 89%
    01:00 +13°C° 0 mm 2 mps 754 mmHg 92%
    02:00 +12°C° 0 mm 2 mps 754 mmHg 95%
    03:00 +12°C° 0 mm 2 mps 754 mmHg 94%
    04:00 +12°C° 0 mm 2 mps 754 mmHg 94%
    05:00 +12°C° 0 mm 2 mps 754 mmHg 94%
    06:00 +14°C° 0 mm 2 mps 754 mmHg 87%
    07:00 +14°C° 0 mm 3 mps 754 mmHg 80%
    08:00 +17°C° 0 mm 3 mps 754 mmHg 73%
    09:00 +18°C° 0 mm 3 mps 755 mmHg 68%
    10:00 +19°C° 0 mm 3 mps 755 mmHg 62%
    11:00 +20°C° 0 mm 4 mps 755 mmHg 56%
    12:00 +20°C° 0.1 mm 4 mps 755 mmHg 56%
    13:00 +20°C° 0.1 mm 3 mps 755 mmHg 55%
    14:00 +21°C° 0.1 mm 3 mps 755 mmHg 54%
    15:00 +21°C° 0.2 mm 3 mps 754 mmHg 56%
    16:00 +20°C° 0.2 mm 3 mps 754 mmHg 58%
    17:00 +20°C° 0.2 mm 3 mps 754 mmHg 59%
    18:00 +18°C° 0 mm 3 mps 754 mmHg 66%
    19:00 +17°C° 0 mm 3 mps 754 mmHg 72%
    20:00 +15°C° 0 mm 2 mps 754 mmHg 79%
    21:00 +14°C° 0 mm 2 mps 754 mmHg 82%
    22:00 +14°C° 0 mm 2 mps 754 mmHg 85%
    23:00 +13°C° 0 mm 2 mps 754 mmHg 88%

    Tomorrow, 22 August, Thursday

    Time Temperature Precipitation Wind Pressure Humidity
    00:00 +13°C° 0 mm 2 mps 754 mmHg 89%
    01:00 +12°C° 0 mm 2 mps 754 mmHg 91%
    02:00 +12°C° 0 mm 2 mps 754 mmHg 92%
    03:00 +12°C° 0 mm 2 mps 754 mmHg 92%
    04:00 +12°C° 0 mm 1 mps 754 mmHg 91%
    05:00 +12°C° 0 mm 1 mps 754 mmHg 91%
    06:00 +13°C° 0 mm 1 mps 753 mmHg 83%
    07:00 +15°C° 0 mm 1 mps 753 mmHg 76%
    08:00 +18°C° 0 mm 1 mps 753 mmHg 68%
    09:00 +19°C° 0.1 mm 1 mps 753 mmHg 65%
    10:00 +20°C° 0.1 mm 1 mps 753 mmHg 61%
    11:00 +20°C° 0.1 mm 1 mps 752 mmHg 58%
    12:00 +20°C° 0.6 mm 1 mps 752 mmHg 62%
    13:00 +18°C° 0.6 mm 2 mps 752 mmHg 66%
    14:00 +18°C° 0.6 mm 2 mps 751 mmHg 71%
    15:00 +18°C° 0.3 mm 2 mps 751 mmHg 72%
    16:00 +18°C° 0.3 mm 2 mps 751 mmHg 73%
    17:00 +18°C° 0.3 mm 2 mps 751 mmHg 74%
    18:00 +16°C° 0.1 mm 2 mps 751 mmHg 79%
    19:00 +15°C° 0.1 mm 2 mps 751 mmHg 84%
    20:00 +13°C° 0.1 mm 2 mps 751 mmHg 89%
    21:00 +13°C° 0 mm 2 mps 752 mmHg 90%
    22:00 +11°C° 0 mm 3 mps 752 mmHg 90%
    23:00 +11°C° 0 mm 3 mps 752 mmHg 91%

    Day after tomorrow, 23 August, Friday

    Time Temperature Precipitation Wind Pressure Humidity
    00:00 +11°C° 0 mm 3 mps 752 mmHg 92%
    01:00 +10°C° 0 mm 3 mps 752 mmHg 92%
    02:00 +10°C° 0 mm 3 mps 753 mmHg 93%
    03:00 +9°C° 0 mm 3 mps 753 mmHg 93%
    04:00 +9°C° 0 mm 3 mps 753 mmHg 94%
    05:00 +9°C° 0 mm 3 mps 753 mmHg 94%
    06:00 +10°C° 0 mm 3 mps 753 mmHg 90%
    07:00 +11°C° 0 mm 3 mps 753 mmHg 85%
    08:00 +14°C° 0 mm 2 mps 753 mmHg 81%
    09:00 +15°C° 0 mm 2 mps 753 mmHg 74%
    10:00 +16°C° 0 mm 2 mps 753 mmHg 68%
    11:00 +18°C° 0 mm 2 mps 753 mmHg 61%
    12:00 +18°C° 0.3 mm 2 mps 753 mmHg 62%
    13:00 +18°C° 0.3 mm 2 mps 753 mmHg 63%
    14:00 +18°C° 0.3 mm 2 mps 753 mmHg 64%
    15:00 +18°C° 0.5 mm 2 mps 753 mmHg 68%
    16:00 +18°C° 0.5 mm 1 mps 753 mmHg 72%
    17:00 +18°C° 0.5 mm 1 mps 753 mmHg 76%
    18:00 +15°C° 0.1 mm 1 mps 753 mmHg 80%
    19:00 +14°C° 0.1 mm 1 mps 753 mmHg 83%
    20:00 +12°C° 0.1 mm 1 mps 753 mmHg 87%
    21:00 +12°C° 0 mm 1 mps 753 mmHg 89%
    22:00 +11°C° 0 mm 1 mps 753 mmHg 92%
    23:00 +11°C° 0 mm 1 mps 753 mmHg 94%

    24 August, Saturday

    Time Temperature Precipitation Wind Pressure Humidity
    00:00 +10°C° 0 mm 1 mps 753 mmHg 94%
    01:00 +10°C° 0 mm 1 mps 753 mmHg 94%
    02:00 +10°C° 0 mm 1 mps 753 mmHg 95%
    03:00 +10°C° 0.1 mm 1 mps 752 mmHg 95%
    04:00 +10°C° 0.1 mm 1 mps 752 mmHg 95%
    05:00 +11°C° 0.1 mm 1 mps 752 mmHg 95%
    06:00 +11°C° 0.6 mm 1 mps 752 mmHg 95%
    07:00 +11°C° 0.6 mm 1 mps 752 mmHg 95%
    08:00 +12°C° 0.6 mm 1 mps 752 mmHg 95%
    09:00 +12°C° 1.5 mm 1 mps 752 mmHg 95%
    10:00 +12°C° 1.5 mm 2 mps 752 mmHg 96%
    11:00 +12°C° 1.5 mm 2 mps 752 mmHg 96%
    12:00 +11°C° 0.6 mm 3 mps 752 mmHg 96%
    13:00 +11°C° 0.6 mm 3 mps 752 mmHg 96%
    14:00 +11°C° 0.6 mm 3 mps 752 mmHg 96%
    15:00 +11°C° 0.5 mm 3 mps 752 mmHg 96%
    16:00 +10°C° 0.5 mm 3 mps 752 mmHg 96%
    17:00 +10°C° 0.5 mm 3 mps 752 mmHg 97%
    18:00 +10°C° 0.3 mm 3 mps 752 mmHg 97%
    19:00 +10°C° 0.3 mm 3 mps 753 mmHg 97%
    20:00 +10°C° 0.3 mm 3 mps 754 mmHg 97%
    21:00 +10°C° 0.2 mm 4 mps 754 mmHg 96%
    22:00 +10°C° 0.2 mm 4 mps 755 mmHg 95%
    23:00 +10°C° 0.2 mm 4 mps 755 mmHg 94%

    25 August, Sunday

    Time Temperature Precipitation Wind Pressure Humidity
    00:00 +8°C° 0.1 mm 4 mps 756 mmHg 94%
    01:00 +8°C° 0.1 mm 4 mps 756 mmHg 94%
    02:00 +8°C° 0.1 mm 3 mps 757 mmHg 94%
    03:00 +8°C° 0.1 mm 3 mps 758 mmHg 93%
    04:00 +7°C° 0.1 mm 2 mps 758 mmHg 93%
    05:00 +7°C° 0.1 mm 2 mps 758 mmHg 93%
    06:00 +8°C° 0 mm 2 mps 759 mmHg 90%
    07:00 +8°C° 0 mm 3 mps 759 mmHg 87%
    08:00 +9°C° 0 mm 3 mps 760 mmHg 84%
    09:00 +10°C° 0 mm 3 mps 760 mmHg 76%
    10:00 +10°C° 0 mm 4 mps 760 mmHg 68%
    11:00 +11°C° 0 mm 4 mps 760 mmHg 61%
    12:00 +11°C° 0 mm 4 mps 760 mmHg 58%
    13:00 +12°C° 0 mm 3 mps 761 mmHg 56%
    14:00 +12°C° 0 mm 3 mps 761 mmHg 53%
    15:00 +12°C° 0 mm 3 mps 761 mmHg 54%
    16:00 +13°C° 0 mm 2 mps 761 mmHg 55%
    17:00 +12°C° 0 mm 2 mps 761 mmHg 55%
    18:00 +11°C° 0 mm 1 mps 761 mmHg 61%
    19:00 +10°C° 0 mm 1 mps 761 mmHg 67%
    20:00 +8°C° 0 mm 1 mps 761 mmHg 73%
    21:00 +8°C° 0 mm 1 mps 761 mmHg 75%
    22:00 +8°C° 0 mm 1 mps 760 mmHg 76%
    23:00 +6°C° 0 mm 2 mps 760 mmHg 78%

    26 August, Monday

    Time Temperature Precipitation Wind Pressure Humidity
    00:00 +7°C° 0 mm 2 mps 760 mmHg 78%
    01:00 +7°C° 0 mm 2 mps 760 mmHg 79%
    02:00 +7°C° 0 mm 2 mps 759 mmHg 79%
    03:00 +7°C° 0.1 mm 2 mps 759 mmHg 82%
    04:00 +8°C° 0.1 mm 2 mps 758 mmHg 85%
    05:00 +8°C° 0.1 mm 2 mps 758 mmHg 88%
    06:00 +9°C° 0.1 mm 3 mps 758 mmHg 89%
    07:00 +9°C° 0.1 mm 3 mps 757 mmHg 90%
    08:00 +10°C° 0.1 mm 3 mps 757 mmHg 91%
    09:00 +10°C° 0.1 mm 3 mps 757 mmHg 91%
    10:00 +12°C° 0.1 mm 2 mps 756 mmHg 90%
    11:00 +12°C° 0.1 mm 2 mps 756 mmHg 90%
    12:00 +13°C° 0 mm 2 mps 756 mmHg 86%
    13:00 +14°C° 0 mm 2 mps 755 mmHg 83%
    14:00 +15°C° 0 mm 2 mps 755 mmHg 80%
    15:00 +15°C° 0.2 mm 2 mps 755 mmHg 84%
    16:00 +14°C° 0.2 mm 2 mps 754 mmHg 88%
    17:00 +14°C° 0.2 mm 2 mps 754 mmHg 93%
    18:00 +13°C° 0.6 mm 2 mps 754 mmHg 94%
    19:00 +13°C° 0.6 mm 2 mps 753 mmHg 96%
    20:00 +12°C° 0.6 mm 2 mps 753 mmHg 98%
    21:00 +12°C° 0.1 mm 2 mps 753 mmHg 98%
    22:00 +12°C° 0.1 mm 2 mps 752 mmHg 98%
    23:00 +12°C° 0.1 mm 2 mps 752 mmHg 98%
    Show more